Simultaneous Nadir Overpasses (SNOs) Predictions

Prediction of SNOs between GOES-15 and NPP Satellite Orbit:

Table of predicted SNOs for the next 14.0 days since TLE Epoch: 1/26/2019
Index Date Time (GOES-15) GOES-15 Lat,Lon NPP Lat,Lon Distance(km) Time Diff (sec)
1 01/26/2019 21:40:10 0.06,-127.71 0.99,-123.63 465.11 80
2 01/28/2019 09:59:17 -0.06,-127.73 0.19,-128.90 132.94 80
3 01/29/2019 09:43:12 -0.05,-127.69 -0.79,-124.36 379.10 80
4 01/30/2019 22:02:27 0.05,-127.54 -0.41,-129.66 241.81 80
5 01/31/2019 21:46:22 0.05,-127.49 0.58,-125.12 269.92 80
6 02/02/2019 10:05:29 -0.05,-127.51 0.60,-130.39 328.97 80
7 02/03/2019 09:49:24 -0.04,-127.46 -0.38,-125.85 182.57 80
8 02/04/2019 22:08:39 0.05,-127.30 -0.81,-131.15 438.87 80
9 02/05/2019 21:52:33 0.04,-127.25 0.17,-126.61 72.36 80
10 02/08/2019 09:52:56 -0.04,-127.21 -0.04,-127.36 16.45 80




NCC Satellite Simultaneous Nadir Overpasses (SNOs) Prediction Service
